TimeEST,TemperatureF,Dew PointF,Humidity,Sea Level PressureIn,VisibilityMPH,Wind Direction,Wind SpeedMPH,Gust SpeedMPH,PrecipitationIn,Events,Conditions,WindDirDegrees,DateUTC
12:54 AM,30.0,23.0,75,30.39,10.0,Calm,Calm,-,N/A,,Clear,0,2013-12-28 05:54:00
1:54 AM,27.0,25.0,92,30.37,10.0,Calm,Calm,-,N/A,,Clear,0,2013-12-28 06:54:00
2:54 AM,28.9,23.0,78,30.37,10.0,SSW,3.5,-,N/A,,Clear,200,2013-12-28 07:54:00
3:54 AM,27.0,21.9,81,30.36,10.0,South,3.5,-,N/A,,Clear,190,2013-12-28 08:54:00
4:54 AM,30.0,21.9,72,30.35,10.0,Calm,Calm,-,N/A,,Clear,0,2013-12-28 09:54:00
5:54 AM,27.0,23.0,85,30.34,10.0,Calm,Calm,-,N/A,,Clear,0,2013-12-28 10:54:00
6:54 AM,25.0,21.0,85,30.36,10.0,Calm,Calm,-,N/A,,Clear,0,2013-12-28 11:54:00
7:54 AM,28.0,21.9,78,30.38,10.0,South,3.5,-,N/A,,Clear,190,2013-12-28 12:54:00
8:54 AM,35.1,25.0,67,30.37,10.0,South,5.8,-,N/A,,Clear,190,2013-12-28 13:54:00
9:54 AM,42.1,24.1,49,30.37,10.0,SW,5.8,-,N/A,,Clear,220,2013-12-28 14:54:00
10:54 AM,48.0,23.0,37,30.35,10.0,SW,6.9,-,N/A,,Clear,220,2013-12-28 15:54:00
11:54 AM,53.1,23.0,31,30.32,10.0,SW,8.1,-,N/A,,Clear,230,2013-12-28 16:54:00
12:54 PM,57.0,24.1,28,30.28,10.0,SSW,10.4,-,N/A,,Clear,210,2013-12-28 17:54:00
1:54 PM,57.9,21.9,25,30.25,10.0,SW,12.7,-,N/A,,Clear,220,2013-12-28 18:54:00
2:54 PM,61.0,21.9,22,30.23,10.0,SSW,8.1,-,N/A,,Clear,210,2013-12-28 19:54:00
3:54 PM,59.0,19.0,21,30.25,10.0,SSW,11.5,-,N/A,,Clear,210,2013-12-28 20:54:00
4:54 PM,55.9,19.9,25,30.24,10.0,SW,10.4,-,N/A,,Clear,220,2013-12-28 21:54:00
5:54 PM,52.0,21.0,30,30.25,10.0,SW,5.8,-,N/A,,Clear,220,2013-12-28 22:54:00
6:54 PM,46.0,25.0,44,30.24,10.0,South,4.6,-,N/A,,Clear,180,2013-12-28 23:54:00
7:54 PM,46.9,26.1,44,30.23,10.0,South,3.5,-,N/A,,Clear,180,2013-12-29 00:54:00
8:54 PM,48.9,25.0,39,30.23,10.0,South,6.9,-,N/A,,Clear,190,2013-12-29 01:54:00
9:54 PM,48.9,26.1,41,30.20,10.0,South,6.9,-,N/A,,Clear,180,2013-12-29 02:54:00
10:54 PM,48.9,26.1,41,30.19,10.0,South,3.5,-,N/A,,Clear,190,2013-12-29 03:54:00
11:54 PM,46.9,28.0,48,30.17,10.0,South,3.5,-,N/A,,Mostly Cloudy,190,2013-12-29 04:54:00